Miscellaneous Local Product
Issued by NWS Hastings, NE

Home | Current Version | Previous Version | Text Only | Print | Product List | Glossary Off
Versions: 1 2 3 4 5 6 7 8 9 10 11 12 13 14 15 16 17 18 19 20 21 22 23 24 25 26 27 28 29 30 31 32 33 34 35 36 37 38 39 40 41 42 43 44 45 46 47 48 49 50

000
AXUS43 KGID 261102
MISGRI

GID CWA HOURLY WEATHER ROUNDUP
NATIONAL WEATHER SERVICE HASTINGS NE
600 AM CDT TUE MAY 26 2015

NOTE: "FAIR" INDICATES FEW OR NO CLOUDS BELOW 12,000 FEET WITH NO
SIGNIFICANT WEATHER AND/OR OBSTRUCTIONS TO VISIBILITY.

...SOUTH CENTRAL NEBRASKA...

CITY           SKY/WX    TMP DP  RH WIND       PRES   REMARKS
GRAND ISLAND   CLOUDY    57  54  89 NW10      29.78R
HASTINGS       CLOUDY    57  54  89 NW12      29.78R
KEARNEY        CLOUDY    57  55  94 NW12      29.82R
ORD            CLOUDY    56  52  86 NW12      29.82S
YORK           CLOUDY    55  55 100 CALM      29.77R
AURORA         CLOUDY    58  57  99 N13       29.76F
LEXINGTON      PTCLDY    55  54  95 NW12      29.85R
HOLDREGE       CLOUDY    56  54  91 NW9       29.83R
HEBRON         CLOUDY    58  55  88 S7        29.77S

...NEBRASKA PANHANDLE...

CITY           SKY/WX    TMP DP  RH WIND       PRES   REMARKS
CHADRON        CLOUDY    54  53  97 N3        29.96R
ALLIANCE       CLOUDY    51  50  96 NW6       29.96R
SCOTTSBLUFF    CLOUDY    47  47 100 W3        29.98R
SIDNEY         CLEAR     45  44  97 NW9       29.98R

...WESTERN AND NORTH CENTRAL NEBRASKA...

CITY           SKY/WX    TMP DP  RH WIND       PRES   REMARKS
VALENTINE      MOCLDY    53  49  86 N9        29.92R
AINSWORTH      CLOUDY    51  50  96 N8        29.90S
ONEILL         CLOUDY    55  54  95 N14       29.85R
BROKEN BOW     MOCLDY    55  51  86 N12       29.86R
IMPERIAL       PTCLDY    50  48  93 W7        29.92S
NORTH PLATTE   CLOUDY    54  52  93 NW10      29.91R
MCCOOK         MOCLDY    51  49  92 W7        29.89R

...EASTERN NEBRASKA...

CITY           SKY/WX    TMP DP  RH WIND       PRES   REMARKS
NORFOLK        CLOUDY    57  56  96 NW3       29.78S
SO SIOUX CITY  CLOUDY    61  59  93 CALM      29.77S FOG
TEKAMAH        CLOUDY    61  58  90 SE6       29.75F
COLUMBUS       CLOUDY   N/A N/A N/A MISG        N/A
ALBION         RAIN      57  55  92 S5        29.80R
OMAHA EPPLEY   CLOUDY    61  59  93 SE8       29.75F
OFFUTT AFB     CLOUDY    59  58  96 E3        29.75S
MILLARD        CLOUDY    62  58  87 S5        29.75F
LINCOLN        CLOUDY    61  58  90 S8        29.74F
NEBRASKA CITY  CLOUDY    59  59 100 S8        29.75S
BEATRICE       CLOUDY    59  57  91 S9        29.75S
FALLS CITY     LGT RAIN  60  59  96 W7        29.77R

...NORTHERN KANSAS...

CITY           SKY/WX    TMP DP  RH WIND       PRES   REMARKS
GOODLAND       CLEAR     45  44  97 NW7       29.95R
HILL CITY      CLEAR     53  50  89 NW10      29.87S
NORTON         SUNNY     54  48  82 W12       29.85S
PHILLIPSBURG   CLEAR     57  55  94 W12       29.84R
SMITH CENTER   PTCLDY    52  52 100 W6        29.82R
HAYS           PTCLDY    54  46  76 W7        29.86R
RUSSELL        MOCLDY    56  53  90 W12       29.83R
CONCORDIA      MOCLDY    57  55  93 SW6       29.78R
SALINA         CLOUDY    58  55  90 S8        29.80R
TOPEKA         CLOUDY    61  60  97 SW3       29.82R



USA.gov is the U.S. government's official web portal to all federal, state and local government web resources and services.